Location: Civry
(47.2902°N, 4.6156°E)
Time: 01:26:23
(UTC+00:00)

Cosmos 1726 Rocket - Pass Details

Date: 09 April 2020
Orbit: 602 x 631 km, 82.5° (Epoch: 30 May)

Event Time Altitude Azimuth Distance (km) Brightness Sun altitude
Rises 18:55:24 0° 174° (S) 2,884 6.7 -6.1°
Reaches altitude 10° 18:57:38 10° 169° (S) 1,988 5.9 -6.5°
Maximum altitude 19:01:55 51° 94° (E) 788 3.8 -7.2°
Drops below altitude 10° 19:06:15 10° 19° (NNE) 2,018 6.2 -7.9°
Sets 19:08:32 0° 14° (NNE) 2,932 7.1 -8.2°
